Wind_Speed
24 21 19 20 24 29 32 31 30 30 31 32 32 32 32 31 31 30 26 22 22 22 21 19 19 19 18 17 17 17 16 17 17 18 19 21 22 24 26 27 29 30 31 33 33 32 31 32 34 34 34 31 31 42 48 42 36 32 31 32 33 30 28 27 27 28 26 23 22 22 22 21 20 20 20 19 20 21 22 21 20 20 19 19 18 17 17
25 23 21 18 17 20 27 31 32 31 31 32 32 32 32 32 31 30 28 25 24 23 22 21 21 20 20 20 19 18 17 16 15 15 17 20 22 23 24 25 25 26 27 28 29 29 30 32 34 34 31 28 29 39 45 40 35 33 32 33 33 32 29 26 25 28 28 24 21 22 23 23 23 23 22 22 22 22 23 24 22 21 20 19 19 18 17
26 24 23 23 20 18 20 25 28 30 32 33 33 33 32 32 32 30 28 27 26 25 25 24 23 22 22 22 21 20 19 17 14 14 16 19 20 21 21 22 23 23 24 25 27 29 30 32 35 35 31 29 31 38 43 40 34 33 35 35 34 33 32 28 26 27 27 26 24 23 22 23 24 24 23 25 27 25 22 23 23 22 21 20 19 18 17
27 25 24 24 24 22 19 18 19 22 28 32 33 34 33 33 32 32 30 29 27 26 25 24 23 22 22 22 21 21 20 19 16 14 15 17 18 19 20 20 21 21 22 24 25 27 27 28 33 34 29 30 35 37 40 39 34 33 36 35 33 32 32 31 29 27 25 24 23 23 24 25 26 24 20 20 24 24 21 21 23 22 21 19 18 17 17
24 25 24 23 24 24 23 19 15 16 21 28 32 34 34 33 32 32 31 29 28 26 25 24 23 22 22 21 21 21 21 20 18 16 16 17 18 19 19 19 20 20 22 23 22 22 22 23 27 33 28 28 33 34 35 34 30 30 31 31 31 30 30 30 29 27 25 24 23 23 23 24 24 23 20 18 20 22 21 22 23 22 20 18 17 16 16
22 22 21 22 23 23 23 21 18 16 18 24 31 33 34 33 32 30 30 28 28 27 25 24 23 22 22 22 21 21 21 21 20 19 19 18 19 19 19 19 19 19 20 21 19 17 17 17 20 30 28 26 30 31 31 30 28 27 26 26 29 30 29 29 29 27 26 26 26 24 21 19 19 19 19 18 19 20 20 22 23 22 19 17 17 16 16
20 20 19 20 20 19 20 22 21 19 17 19 26 32 33 33 31 29 29 29 28 27 26 24 23 23 22 21 21 21 21 21 21 21 21 21 20 21 20 20 19 18 19 19 17 14 15 15 14 21 25 28 31 29 28 28 26 25 25 27 31 32 29 26 25 25 25 24 25 24 21 19 18 18 18 19 19 20 20 21 23 22 19 18 18 18 18
17 18 19 21 19 16 16 18 20 20 18 16 19 25 29 31 31 30 30 30 29 28 27 26 25 24 23 21 20 20 20 21 22 21 22 23 23 23 23 21 20 18 18 18 16 14 15 15 13 18 21 25 28 26 26 27 25 24 25 27 27 28 26 24 23 24 24 23 24 24 21 19 19 19 19 19 20 20 20 22 24 23 22 21 20 20 20
15 16 18 21 21 17 15 15 16 17 18 16 16 19 23 27 29 30 30 30 29 29 28 26 26 25 25 24 23 22 22 22 22 21 23 24 25 25 25 23 21 19 17 17 15 15 18 18 15 16 18 21 24 24 25 28 28 27 24 22 19 19 21 23 24 24 24 25 26 24 21 20 20 20 20 20 21 21 22 23 24 23 24 23 22 22 22
15 16 17 19 21 21 19 17 16 16 16 16 16 17 19 23 25 27 28 28 28 28 28 27 26 26 26 26 26 26 26 24 22 21 22 24 26 27 26 25 23 20 18 18 17 16 18 18 17 17 18 19 21 21 20 21 23 22 21 18 17 18 20 22 24 25 25 27 27 24 23 22 22 22 22 22 22 23 24 24 24 24 24 24 23 24 24
16 17 18 17 18 21 22 22 21 19 17 17 17 17 19 21 23 24 25 25 26 27 27 28 28 27 26 26 27 27 28 27 24 22 22 23 25 27 27 26 25 22 20 20 20 20 20 20 19 20 20 20 21 21 20 18 17 17 18 17 17 19 21 25 27 27 28 29 27 25 25 23 22 22 21 21 23 24 25 24 24 25 26 26 26 26 25
16 18 19 18 18 19 20 21 22 21 20 18 17 17 18 20 22 22 23 24 24 24 25 27 28 28 27 26 26 27 28 28 27 25 24 24 24 26 27 28 27 25 23 22 24 24 24 24 24 23 22 21 20 22 22 22 20 20 20 20 19 20 22 25 26 26 28 28 26 25 24 23 22 23 22 23 24 25 25 25 26 27 27 28 28 26 25
16 17 17 16 16 16 16 17 18 19 19 18 17 16 15 17 19 21 22 23 23 23 24 26 28 28 28 27 27 27 28 28 28 27 25 25 25 25 27 28 28 27 25 24 25 25 26 26 25 24 24 23 21 22 23 23 22 22 22 22 23 23 24 24 24 24 25 24 23 23 23 22 23 26 27 28 29 29 28 29 29 29 28 29 30 29 29
16 16 15 14 14 14 14 15 16 16 16 16 15 14 13 15 17 19 20 22 23 25 26 27 27 28 29 29 28 28 28 28 28 27 27 27 27 27 27 28 28 28 27 25 24 25 26 27 26 25 26 25 23 24 26 26 24 23 24 24 25 26 28 29 29 28 29 28 28 28 27 27 27 28 28 28 29 30 31 32 34 34 33 33 33 33 33
13 13 13 13 14 14 14 14 16 16 16 16 16 14 14 15 16 18 19 20 21 23 24 26 26 27 27 28 28 28 29 29 30 30 29 28 28 28 27 27 27 27 26 25 24 24 25 27 27 28 28 27 25 25 27 27 26 26 26 27 27 28 30 32 34 35 34 34 33 33 32 31 31 32 32 31 30 31 32 33 35 37 38 39 38 38 37
12 12 13 13 12 12 12 13 15 16 16 17 17 16 16 16 16 17 19 19 19 20 21 23 24 25 25 25 25 26 28 30 31 30 29 28 29 30 30 29 28 27 26 26 26 26 25 25 27 28 29 29 28 28 28 29 29 29 29 30 31 31 31 32 34 35 35 35 35 35 35 34 33 35 36 37 37 37 36 36 37 38 39 40 41 42 43
11 11 11 11 11 11 11 11 13 14 14 15 15 16 16 15 14 16 18 20 20 20 20 20 21 23 23 23 22 23 24 26 28 28 27 27 29 31 31 31 29 28 28 27 26 26 26 26 26 28 29 29 30 30 31 31 32 32 32 32 32 32 32 32 32 33 34 34 35 34 33 33 33 33 33 35 37 38 39 40 41 41 42 43 44 46 47
9 9 9 9 10 11 11 10 11 12 12 12 12 14 15 14 13 13 14 16 18 19 20 20 20 20 20 20 20 20 21 23 25 26 27 27 29 30 30 30 28 27 27 26 26 26 27 28 29 30 30 31 32 32 33 33 34 34 34 34 34 34 33 33 32 32 32 32 32 32 32 32 32 33 33 35 36 37 39 40 42 43 45 47 48 50 50
7 7 7 8 9 10 11 11 12 12 12 13 13 13 14 15 14 14 13 13 13 15 16 18 20 21 21 21 21 21 21 23 25 26 27 27 27 28 28 29 28 27 26 26 27 28 29 31 32 32 33 33 33 33 34 34 35 36 36 36 36 35 35 34 33 33 32 33 33 33 33 34 35 35 36 38 39 40 41 42 43 45 47 48 50 51 52
6 6 7 7 8 9 10 11 12 12 13 14 15 16 16 16 17 17 16 15 14 14 14 14 16 18 21 23 24 24 24 24 25 26 27 27 26 26 26 27 27 27 27 27 27 28 30 31 32 33 34 34 35 35 36 36 37 37 37 37 37 37 36 36 35 34 34 34 34 35 35 36 37 38 39 40 41 43 44 45 47 48 49 51 52 53 54
7 7 8 9 9 10 11 12 12 13 14 15 16 17 18 18 18 19 19 18 17 17 18 17 16 16 17 19 22 23 24 25 26 27 27 27 26 26 26 26 27 27 28 28 28 29 30 31 32 32 33 34 35 35 36 37 37 37 36 36 37 36 36 36 35 35 34 34 35 35 36 37 38 39 40 41 42 43 44 46 47 48 49 50 51 52 52
4 5 6 8 9 10 11 13 14 15 15 16 17 18 19 20 21 21 21 21 20 20 20 21 21 21 21 21 22 23 24 24 26 27 28 28 28 27 27 27 27 27 28 28 29 29 29 30 30 30 30 31 31 32 33 34 34 34 34 33 33 34 34 34 34 33 34 34 35 36 36 37 38 39 40 41 41 42 43 44 45 46 47 49 50 51 52
1 2 3 5 6 8 10 11 13 15 16 17 17 18 19 20 21 22 22 23 23 23 22 22 23 24 25 25 26 26 26 27 27 28 29 29 29 29 29 28 27 27 27 28 28 29 30 30 31 31 30 30 30 30 30 31 31 31 32 32 32 32 32 33 33 34 35 36 37 38 38 39 39 40 40 41 42 44 45 46 47 48 49 50 52 53 54
2 3 3 4 5 6 7 9 10 12 14 15 16 16 17 18 19 20 21 21 23 24 24 25 25 26 28 29 29 30 30 30 30 31 31 31 32 32 32 32 32 32 31 30 30 30 31 31 32 33 33 33 32 32 33 33 33 33 34 34 34 35 35 35 36 36 37 38 39 40 40 41 42 43 43 44 45 46 47 48 49 50 51 52 54 55 56
3 4 4 5 6 7 8 9 10 11 12 14 14 15 16 16 17 18 19 20 21 22 23 24 26 27 28 30 31 33 34 35 35 35 35 35 35 35 36 36 37 37 37 37 36 36 35 35 35 35 36 36 35 35 36 36 36 36 37 37 38 38 38 39 39 39 40 41 42 43 44 44 45 46 47 47 48 48 49 50 51 52 53 54 55 57 58
4 4 4 5 6 7 8 10 11 12 13 15 16 17 17 18 19 19 20 21 21 22 23 24 25 26 27 28 30 32 34 35 37 38 39 39 40 40 40 40 40 40 41 41 40 40 40 40 39 39 39 39 39 39 39 39 39 39 39 40 40 40 40 40 41 41 42 43 43 44 45 46 47 47 48 48 49 49 50 50 51 52 53 53 54 55 56
3 4 5 6 8 9 11 13 14 16 17 19 20 21 22 23 23 24 24 25 25 26 26 27 27 27 28 29 29 30 31 32 34 35 37 38 40 41 42 43 43 44 44 43 43 43 42 41 41 41 41 41 41 41 41 41 41 41 41 41 41 40 40 40 40 41 41 41 42 43 43 44 45 45 45 46 46 47 47 48 48 49 49 50 51 52 52
5 6 8 10 11 13 15 17 19 21 22 23 25 26 27 27 28 29 29 29 30 30 30 31 31 32 32 32 32 33 33 33 33 34 35 36 37 38 39 40 41 42 43 43 44 43 43 42 42 41 41 41 40 40 40 40 40 40 40 40 40 40 40 40 40 40 40 41 41 42 42 43 43 44 44 44 45 45 46 46 47 47 47 48 48 49 49
7 9 11 13 15 17 19 21 22 24 25 26 27 27 28 29 30 30 30 31 31 32 32 32 33 34 35 36 37 37 37 36 36 36 36 37 37 37 37 38 38 39 40 41 41 42 42 42 42 41 41 41 40 40 40 40 39 39 39 39 39 39 39 39 40 40 40 41 41 41 41 42 42 42 43 43 43 43 43 43 43 43 43 44 44 44 44
10 12 14 16 18 19 21 22 24 26 27 29 29 30 30 30 30 30 31 30 31 32 32 32 33 34 35 36 37 39 39 39 40 40 40 40 40 40 40 40 39 39 40 40 40 40 40 40 40 40 40 39 39 39 39 39 39 39 38 38 38 38 38 38 38 38 38 38 38 38 38 38 38 39 39 39 38 38 38 38 38 38 38 38 38 39 39
13 15 16 18 19 20 22 24 26 28 31 32 33 34 34 33 32 31 30 30 30 31 31 32 32 33 34 35 36 37 38 39 40 41 41 42 42 42 43 43 42 42 42 42 42 42 41 41 40 39 39 38 37 37 37 37 37 36 36 36 35 35 35 35 35 35 35 35 34 34 34 34 34 34 34 34 34 34 34 34 34 34 34 34 34 35 35
15 16 17 18 19 21 23 25 27 30 32 33 33 33 33 32 31 30 29 28 28 28 29 30 31 31 32 33 33 34 35 36 38 39 40 41 42 43 44 44 44 45 45 44 44 44 44 43 42 42 41 40 38 37 37 36 35 35 34 33 33 33 33 33 33 32 32 32 32 32 32 32 32 32 32 31 31 30 30 31 31 31 32 32 32 32 33
15 16 17 18 19 21 23 26 28 30 32 32 31 30 29 28 27 26 26 25 24 24 25 26 27 27 28 29 30 31 31 32 34 35 37 38 39 41 42 43 44 45 45 46 46 45 45 44 44 43 42 41 39 38 37 36 36 35 34 33 33 32 32 32 31 31 30 30 30 29 29 29 29 29 29 29 28 28 29 29 30 30 30 30 30 30 30
15 16 17 19 20 23 25 27 29 30 30 29 27 26 25 24 23 22 22 21 20 20 21 21 22 23 24 25 26 26 27 28 29 30 31 32 34 36 37 39 41 42 43 44 44 44 44 44 43 42 41 40 39 38 36 35 35 34 33 32 32 31 31 30 29 29 28 28 28 27 27 28 28 28 28 28 27 27 28 28 28 28 28 28 28 28 28
15 16 18 20 22 24 27 29 30 30 29 27 25 23 21 20 20 20 19 19 18 18 19 19 20 20 21 22 22 23 24 24 25 26 27 27 28 29 31 32 34 35 37 38 39 39 39 39 39 39 38 37 36 35 34 33 33 32 32 31 30 30 29 29 28 28 27 27 27 26 26 27 27 27 27 26 26 26 27 27 26 26 26 26 26 26 26
16 17 19 21 23 25 28 30 30 29 27 24 22 20 18 18 19 19 19 19 19 18 18 19 19 19 19 19 20 20 21 21 22 23 23 24 24 25 26 27 28 29 29 30 31 31 31 32 33 33 33 33 33 32 32 31 31 31 30 29 29 29 28 28 27 27 26 26 26 25 25 25 25 25 25 25 25 25 25 25 25 25 25 25 25 25 25
16 18 19 21 24 26 28 30 30 28 26 23 20 19 18 18 19 20 20 20 19 19 18 19 19 19 19 19 19 19 20 20 20 20 21 21 21 22 23 24 24 25 26 26 26 26 26 27 28 28 29 29 29 30 29 29 29 29 29 28 28 27 27 27 26 26 25 25 24 24 24 24 24 24 24 24 24 24 24 24 23 23 24 24 24 24 24
17 18 20 22 24 27 29 30 29 28 25 22 20 19 19 19 20 21 21 21 21 20 19 19 19 19 19 19 19 20 20 20 20 20 19 19 19 19 20 21 22 23 23 24 24 24 24 24 25 25 26 26 27 27 27 27 27 27 27 26 26 26 25 25 25 24 24 23 23 23 23 23 22 22 22 22 22 22 22 23 23 23 23 22 22 22 22
17 19 21 22 24 27 29 29 29 27 25 22 20 19 20 20 20 21 22 22 22 21 20 19 19 19 19 19 19 20 20 20 20 20 19 19 18 18 19 20 20 21 21 21 21 22 22 22 22 23 23 24 24 24 25 25 26 26 25 25 25 24 24 24 23 23 23 22 22 22 22 21 21 21 21 21 21 21 22 22 21 21 20 19 19 19 20
18 20 21 23 24 26 28 29 29 27 25 22 20 19 19 20 20 21 22 23 23 22 21 19 18 18 18 18 18 19 20 20 20 20 19 19 18 18 18 18 18 19 19 19 19 19 19 20 20 20 21 21 22 22 23 23 24 24 24 24 23 23 23 23 22 22 22 21 21 21 21 21 21 21 20 20 20 20 20 19 19 18 17 17 18 19 21
19 21 22 23 24 25 27 28 29 27 25 23 21 20 19 19 20 21 22 23 23 22 21 19 18 17 17 17 17 17 18 19 19 19 19 19 19 18 17 17 17 17 17 17 17 17 18 18 18 19 19 19 20 20 21 22 22 23 23 22 22 22 22 22 22 21 21 20 20 20 20 20 20 19 19 19 19 18 18 17 16 16 17 18 19 20 22
20 21 22 23 24 25 26 27 28 27 25 23 21 20 19 19 20 21 22 22 23 22 21 19 17 16 15 15 15 16 16 17 18 19 19 18 18 18 17 17 16 15 15 15 15 16 17 17 17 18 18 19 19 20 20 21 22 22 22 22 22 22 22 22 21 20 20 20 20 20 20 20 19 18 18 18 17 17 16 16 16 16 17 19 20 21 22
20 22 23 24 24 25 26 27 27 27 26 24 21 20 19 19 19 20 21 21 22 21 20 19 17 15 14 14 15 16 16 17 17 18 18 18 18 18 17 17 16 15 14 13 14 14 15 16 16 17 18 19 20 19 20 21 21 21 21 21 21 21 21 21 21 20 20 20 20 20 19 19 18 17 17 17 16 16 16 16 16 17 18 19 20 21 23
21 22 23 24 24 25 26 26 27 27 27 25 22 20 19 19 20 20 20 20 21 21 20 18 17 15 14 14 15 16 16 16 16 16 16 16 17 17 16 16 15 15 13 12 13 13 14 15 16 16 17 18 19 19 19 20 21 21 21 21 21 21 21 21 21 20 20 20 20 19 19 18 17 17 16 16 16 16 16 16 17 17 18 19 20 21 23
22 23 24 24 25 25 25 26 27 27 27 26 24 21 20 20 20 20 19 20 20 20 20 18 16 15 15 15 15 14 13 13 13 13 13 14 14 15 15 14 14 14 13 12 12 13 13 14 15 15 16 17 18 18 19 19 19 20 20 21 21 21 21 20 20 20 20 20 20 19 19 18 17 17 16 16 16 16 16 16 17 17 18 19 20 21 23
22 24 24 25 25 25 25 26 27 27 27 26 25 23 21 20 20 20 20 19 20 20 19 18 16 15 15 14 13 12 11 11 11 10 9 10 11 12 11 11 11 11 11 11 11 11 12 13 14 14 15 16 17 17 18 17 17 18 19 20 21 20 20 20 20 21 21 21 20 20 20 19 17 17 16 16 16 16 16 16 17 17 18 18 19 20 21
24 25 25 26 26 26 26 26 27 27 27 26 25 24 22 21 20 20 20 19 19 19 19 18 16 15 14 13 13 12 11 10 10 9 7 8 10 10 10 10 10 10 10 10 10 10 11 12 13 13 14 15 16 16 17 17 17 17 19 20 21 21 20 20 21 22 22 22 21 21 20 19 18 17 17 17 16 16 16 16 16 17 17 17 18 19 20
25 26 26 26 26 26 26 26 27 27 27 27 26 25 23 22 20 20 20 19 19 19 19 18 17 15 14 14 14 14 13 12 12 12 11 11 12 12 11 11 10 10 10 10 10 10 11 11 11 12 13 14 15 16 16 16 17 17 18 20 21 21 21 21 22 23 23 23 23 22 21 20 19 18 18 17 17 17 16 16 16 16 16 16 17 18 19
26 27 27 27 27 27 27 27 27 28 28 27 26 25 24 23 21 20 20 19 19 19 19 18 18 17 16 16 16 16 16 16 16 15 15 15 15 15 14 13 12 12 11 11 11 11 11 11 12 12 12 12 13 14 15 16 16 16 17 19 20 21 22 23 24 24 24 24 24 23 22 21 20 19 18 18 17 17 16 16 15 15 15 15 16 16 17
27 27 28 28 28 28 28 28 28 28 28 27 26 25 24 23 22 21 20 20 20 19 19 18 18 19 19 19 19 19 19 20 20 19 19 18 18 18 17 17 16 15 14 14 14 14 13 13 12 12 12 12 12 13 14 15 15 16 16 17 19 21 23 24 26 26 25 24 24 24 23 22 21 20 19 18 18 17 16 15 15 15 15 15 15 15 16
27 28 28 28 29 29 29 29 29 29 28 28 27 26 25 24 23 22 21 20 20 20 20 19 19 20 20 21 22 23 23 23 23 23 23 22 22 21 20 20 19 19 18 17 17 16 16 16 15 14 14 13 13 13 13 14 16 17 17 18 19 21 23 25 26 26 25 25 24 24 23 23 21 20 20 19 18 17 16 16 15 15 15 14 14 15 15
27 28 29 29 29 29 29 29 29 29 29 28 28 27 26 25 24 23 22 22 21 21 21 21 21 21 21 21 23 24 25 25 25 25 25 25 24 23 22 21 21 21 21 20 20 19 19 18 18 17 16 16 15 15 14 14 15 16 18 19 21 22 23 24 24 24 25 25 25 25 24 23 22 21 20 20 19 18 17 16 16 16 15 15 14 14 14
Wind_Direction
245 246 244 238 234 235 238 239 240 239 238 239 240 242 244 246 250 255 258 255 250 251 258 260 256 254 255 257 257 253 249 248 249 250 244 238 236 238 240 243 246 248 250 253 254 257 260 258 257 256 255 257 243 222 220 227 234 239 242 240 238 234 231 230 231 233 234 230 229 229 226 226 228 230 232 232 232 233 233 234 237 240 241 240 237 236 239
245 247 250 248 240 235 235 236 238 239 238 239 240 241 242 244 248 253 257 257 256 256 258 259 259 260 262 264 265 263 261 259 258 251 239 233 234 238 242 245 248 249 250 252 254 255 255 256 256 252 246 246 236 222 220 226 235 242 246 245 242 237 232 231 233 236 236 232 232 233 231 234 237 239 243 244 239 236 234 232 233 234 236 238 237 236 238
248 249 252 253 251 246 238 234 235 238 238 238 240 241 242 243 246 251 255 258 259 258 258 259 261 264 267 268 264 262 262 261 260 252 240 235 237 241 245 248 249 251 252 251 251 250 252 256 256 250 241 236 230 221 220 225 235 243 246 245 243 238 234 233 236 238 236 234 238 239 237 241 242 242 250 249 238 233 232 232 231 231 234 239 241 240 241
251 252 254 254 253 253 249 241 238 239 240 239 238 240 241 242 245 249 252 256 257 258 259 260 262 263 264 264 261 258 259 258 257 254 246 243 243 244 246 247 248 250 251 253 254 252 257 261 249 239 236 231 221 217 220 228 236 243 244 241 238 236 235 235 238 238 233 233 239 240 239 242 241 241 251 249 231 223 227 232 232 231 234 240 244 246 247
251 252 253 253 251 250 250 249 248 245 241 238 237 238 239 240 243 246 250 253 255 256 258 257 258 259 260 260 258 255 254 255 254 252 248 248 247 247 250 249 248 250 250 257 265 263 270 269 236 220 224 225 215 213 220 228 236 241 242 237 232 232 233 233 234 235 235 236 239 239 241 243 240 238 243 242 228 223 227 230 230 229 232 239 247 250 252
244 244 247 248 247 247 249 248 249 249 244 237 235 236 237 238 240 243 247 251 252 253 254 254 254 255 256 257 255 253 253 253 253 250 247 248 249 249 254 254 253 255 255 264 275 270 273 277 233 208 207 209 209 212 220 227 231 232 231 227 224 227 229 230 232 235 237 237 235 232 234 236 234 234 238 239 234 231 232 230 226 226 231 241 248 252 255
241 240 241 242 242 244 247 246 246 248 248 241 235 234 235 235 238 242 245 246 248 250 252 253 252 252 253 253 249 249 251 251 251 250 247 248 249 249 253 257 257 260 262 269 278 273 272 278 240 202 195 199 206 213 219 222 223 224 226 226 226 227 226 224 227 230 229 227 224 220 221 229 235 237 238 240 238 235 233 229 225 225 232 241 246 249 254
238 236 235 235 236 236 239 242 244 246 249 247 239 235 233 233 237 241 243 244 245 247 249 251 251 250 251 251 247 246 250 251 250 249 247 248 249 249 252 256 256 258 262 268 278 279 275 271 235 200 195 202 210 217 221 221 219 220 226 227 223 220 217 215 220 223 219 214 213 214 222 237 244 242 239 238 237 234 230 229 229 232 238 243 246 249 252
232 232 231 231 231 229 229 233 237 241 245 247 245 239 234 233 235 238 239 241 243 245 247 247 248 249 250 251 251 250 253 255 255 252 249 249 249 248 250 252 251 251 254 261 272 276 272 268 245 213 200 199 206 215 218 214 211 209 213 215 213 211 213 216 219 217 211 211 214 220 233 245 248 247 242 236 234 234 234 235 237 240 244 245 248 252 254
227 230 231 230 230 232 233 237 239 241 244 246 248 247 241 236 235 237 237 237 238 241 243 244 245 246 247 250 253 253 255 258 259 256 251 249 248 247 247 248 247 246 247 251 256 258 256 255 244 229 218 208 208 211 206 196 192 195 201 210 215 216 214 215 215 213 212 216 221 228 239 247 248 245 241 237 235 236 238 241 243 245 247 248 250 253 255
225 230 233 235 236 237 238 241 245 247 248 249 250 252 248 240 235 235 236 236 234 236 240 242 243 243 245 248 252 255 257 259 260 258 255 252 251 248 248 247 245 244 247 248 248 246 243 240 235 230 227 223 221 224 222 213 205 205 210 215 216 217 215 213 211 211 214 219 224 232 239 243 243 240 239 238 238 237 239 243 245 245 245 246 249 254 257
227 234 238 240 243 244 242 243 246 249 251 252 254 255 253 246 239 233 231 232 233 234 237 240 242 242 244 247 250 254 256 257 257 257 256 255 254 250 248 248 245 245 249 250 246 243 243 242 241 236 228 224 226 230 232 232 230 227 225 224 220 221 223 219 215 216 219 220 223 229 233 235 234 233 233 234 235 235 237 240 243 244 244 245 246 248 251
219 226 232 236 240 244 243 241 244 247 249 250 253 256 256 251 246 238 231 229 229 229 232 237 239 242 244 246 248 251 254 256 256 255 254 253 252 249 246 246 246 249 253 250 243 241 240 240 241 238 232 230 231 234 235 235 235 233 231 228 223 221 222 222 219 220 223 223 225 230 235 237 236 233 231 231 234 235 236 236 240 242 244 245 244 241 241
212 217 225 230 233 236 234 231 233 239 242 244 249 255 256 252 249 246 240 233 229 228 230 234 237 239 241 243 246 248 251 254 255 255 253 251 250 248 245 244 246 251 253 248 241 240 240 238 236 236 236 235 234 237 239 238 237 237 235 232 229 226 225 225 226 229 233 238 242 244 246 246 242 237 235 235 236 236 236 236 238 241 243 245 246 244 242
209 216 221 223 225 227 227 227 230 234 238 241 243 244 246 247 246 246 247 245 240 236 236 236 238 239 240 241 244 247 250 252 253 255 257 257 256 255 252 250 250 252 253 249 244 243 243 240 236 234 237 237 235 236 241 242 241 240 239 237 235 232 229 229 232 237 241 246 249 250 249 247 244 242 242 242 242 242 241 239 239 241 244 248 250 250 249
215 220 218 218 222 225 226 225 229 233 238 241 240 239 243 245 239 232 234 238 240 241 241 241 242 243 244 245 247 249 251 251 252 255 259 261 259 258 257 257 255 253 252 250 247 244 243 241 238 235 237 240 239 239 242 245 245 244 242 240 239 238 236 234 234 237 240 243 245 247 247 246 245 245 246 247 248 250 249 248 247 247 248 250 252 254 254
206 214 218 219 222 227 227 222 222 228 235 236 233 231 236 239 229 219 221 225 227 230 234 238 241 245 247 248 251 253 253 252 252 253 253 252 251 251 253 255 255 253 252 250 247 244 244 243 241 239 238 241 243 244 245 246 246 245 244 243 242 242 241 239 238 238 239 241 242 243 245 248 250 252 252 253 254 254 254 254 254 254 254 255 256 256 257
192 201 209 212 217 224 227 225 225 232 240 244 238 230 228 226 221 218 221 223 221 222 225 228 231 234 237 240 241 242 242 242 242 242 241 241 241 241 243 247 249 250 251 252 250 248 248 247 245 243 242 242 244 245 246 247 247 246 245 243 242 241 241 241 240 239 240 242 243 245 247 251 255 257 257 258 259 259 259 259 259 260 260 261 261 261 261
190 196 203 211 220 226 231 236 239 243 251 257 259 254 247 241 236 232 229 225 222 222 223 224 221 219 218 219 220 220 222 225 227 229 231 233 234 234 234 236 238 241 245 248 249 249 248 247 246 245 245 245 245 245 246 247 247 246 245 244 242 241 241 242 243 244 245 246 248 250 252 255 257 258 259 260 260 261 262 262 263 263 264 264 265 266 267
208 211 215 223 231 237 242 246 250 253 255 259 263 265 263 259 256 251 245 238 232 227 228 230 226 219 213 211 211 212 214 219 223 227 231 233 235 236 236 236 236 237 238 239 240 241 240 239 239 239 240 241 241 242 242 243 244 243 243 242 241 241 241 242 244 246 248 251 253 256 259 260 261 262 262 262 263 263 263 264 264 265 266 267 268 270 271
223 228 231 233 238 244 248 252 256 259 261 263 265 267 267 265 263 261 258 254 248 241 236 236 239 237 231 224 220 219 221 225 229 233 236 240 242 244 244 244 243 242 241 240 239 238 237 236 235 235 235 236 236 237 238 239 240 240 240 240 240 241 242 243 245 247 249 252 255 258 260 261 262 263 264 264 265 265 266 266 266 267 268 269 270 271 272
239 244 245 245 248 252 255 258 261 264 265 266 267 268 269 270 269 267 265 262 259 254 248 243 244 247 249 247 243 241 239 239 239 239 240 242 243 243 244 245 246 246 247 247 247 246 245 244 242 241 240 240 240 241 241 242 243 243 244 244 245 245 247 248 250 252 253 255 256 257 258 258 259 260 261 263 264 265 266 267 268 269 269 270 271 272 273
322 292 278 271 267 267 266 266 268 269 270 271 271 270 270 271 272 272 271 268 266 263 259 253 249 247 248 250 251 252 253 252 251 250 249 249 249 248 248 247 247 246 247 248 249 250 251 251 251 250 250 249 250 250 250 251 251 251 252 253 253 254 254 255 256 257 257 258 258 259 259 260 260 261 262 263 264 266 267 268 269 270 271 271 272 273 274
13 343 323 310 299 293 288 283 281 280 279 278 278 277 275 273 273 273 273 271 269 267 265 262 258 253 250 249 249 250 251 252 253 254 254 254 255 255 255 255 254 253 251 251 251 251 252 253 254 255 255 256 257 257 257 257 256 257 257 258 258 259 259 259 260 260 260 261 261 262 263 263 264 265 266 266 267 268 269 270 270 271 272 272 273 274 274
21 1 341 328 318 310 304 298 294 292 289 287 286 285 283 281 279 277 276 275 273 271 268 266 264 261 258 256 254 253 252 252 252 253 253 254 255 256 257 258 259 259 259 258 258 257 257 257 256 256 257 258 259 261 261 261 261 261 261 261 262 262 263 263 264 264 264 264 265 266 266 267 268 268 269 270 271 272 272 273 273 274 274 274 275 275 275
20 1 342 329 319 310 304 299 296 293 291 289 287 286 285 284 282 280 278 277 276 275 273 271 269 267 265 264 262 260 258 257 257 256 256 256 257 257 258 259 260 261 262 263 263 263 263 263 263 262 261 260 260 262 263 264 265 265 265 266 266 266 267 267 267 267 267 267 267 268 269 269 270 270 271 271 272 272 273 273 274 274 275 275 275 275 275
353 335 323 314 309 305 302 299 297 295 293 291 289 288 286 284 283 281 279 277 276 275 274 274 272 271 270 268 267 266 264 263 262 262 261 260 260 260 260 260 261 262 263 264 265 266 267 267 268 267 267 266 265 265 266 266 267 267 268 268 269 269 269 269 269 269 269 269 269 269 269 269 270 271 271 272 272 273 273 274 275 275 275 276 276 276 276
322 316 312 309 307 306 304 302 301 299 297 295 293 291 289 288 286 284 282 280 278 276 274 273 272 271 270 269 268 267 267 266 265 265 264 264 264 263 263 263 263 263 263 264 265 266 267 268 268 269 269 269 269 269 269 269 269 269 269 270 270 270 270 270 270 270 270 270 270 270 271 271 272 273 274 274 275 275 276 276 276 276 276 275 275 275 275
313 312 311 310 309 308 307 306 305 303 301 299 297 295 294 292 290 288 286 284 282 279 277 274 273 271 270 269 268 267 266 266 265 265 265 264 264 265 265 265 265 266 266 265 265 265 265 266 267 268 268 269 270 270 270 271 271 271 271 271 271 271 271 271 272 272 272 272 273 273 274 274 275 275 276 276 277 277 277 276 276 275 274 274 273 273 273
314 313 312 311 311 311 311 310 308 307 306 306 305 304 302 299 296 292 289 287 285 283 280 278 276 274 272 270 269 268 267 267 266 265 265 264 264 264 264 264 265 265 266 266 266 266 266 266 266 266 267 267 267 268 269 269 269 270 270 270 271 271 271 272 272 272 273 273 273 273 274 274 275 275 276 276 276 277 276 276 275 274 274 274 274 275 275
313 313 313 313 313 313 312 311 309 309 309 308 308 307 306 304 301 297 293 290 286 284 282 280 278 276 274 273 271 270 269 268 267 267 266 265 265 264 264 264 263 263 264 264 265 266 266 267 267 267 266 266 266 266 266 267 267 267 267 268 268 269 269 270 270 271 271 271 272 273 273 274 275 275 276 277 278 278 278 278 277 277 278 279 280 281 281
313 313 313 312 312 312 312 313 312 311 310 309 308 306 304 302 300 297 294 291 287 283 280 278 277 276 275 274 274 272 271 270 269 269 268 267 267 266 265 264 264 263 263 263 263 264 264 265 265 265 266 266 266 266 266 266 266 266 266 266 267 267 268 268 269 269 270 271 272 273 274 275 276 277 278 279 280 281 281 281 282 282 284 284 285 285 286
313 312 311 311 313 315 318 320 319 317 316 314 312 309 306 303 299 297 295 292 289 284 280 278 276 275 275 274 274 274 274 273 272 272 271 270 269 268 267 266 265 264 263 263 262 262 263 263 263 263 263 263 263 264 264 264 265 265 265 266 266 266 266 267 268 268 269 270 271 273 274 275 277 278 280 281 283 284 284 284 285 286 287 287 287 287 287
313 312 312 315 319 323 326 327 326 324 322 320 317 314 310 307 304 302 300 297 293 289 284 281 278 276 275 274 275 275 275 276 276 276 275 274 273 272 271 269 267 266 265 264 263 263 262 262 262 262 262 262 261 261 261 261 262 262 263 263 264 264 265 265 267 268 269 270 272 273 275 276 278 279 281 282 283 283 283 284 285 286 286 286 286 287 287
313 314 317 321 325 329 332 333 332 330 328 325 322 318 314 312 310 309 306 304 300 295 290 285 281 278 276 275 275 276 277 278 278 279 279 279 278 277 276 274 272 270 267 266 264 264 263 263 262 262 261 261 260 259 258 258 259 260 260 261 261 262 263 264 266 267 268 270 272 273 274 275 276 277 279 280 281 281 281 282 283 283 284 284 285 286 286
316 318 321 325 329 333 336 337 336 334 332 329 326 322 317 315 314 313 311 309 306 302 296 290 285 281 278 277 278 278 279 279 280 281 282 282 281 280 279 277 275 272 270 268 266 264 263 261 260 260 259 258 257 256 255 255 256 257 257 258 259 260 261 262 263 264 266 267 268 270 271 272 273 275 276 277 278 278 278 278 279 280 280 281 282 283 284
318 321 324 328 332 336 338 340 339 338 335 333 329 324 320 318 318 317 315 313 310 307 302 296 290 285 280 278 279 280 281 281 282 283 284 283 283 282 281 278 276 273 270 268 266 264 261 259 258 257 255 254 252 252 252 252 253 254 255 255 256 257 258 259 260 262 263 264 265 267 268 269 270 271 272 273 273 273 273 274 275 276 278 279 281 283 284
319 323 326 330 334 337 340 342 342 340 338 335 332 326 323 321 321 320 318 315 312 310 307 303 298 292 287 283 281 281 282 283 285 286 287 287 287 286 284 282 279 275 272 269 267 264 261 259 258 256 255 253 252 251 250 250 251 252 252 253 254 254 256 257 258 260 261 262 263 264 265 266 266 266 266 266 266 267 268 270 273 275 277 279 281 284 286
321 325 328 332 335 338 340 342 344 342 340 337 333 328 325 323 322 321 319 317 315 313 311 309 304 298 292 288 284 283 284 286 288 289 290 290 290 289 287 284 282 279 276 273 270 266 263 260 257 255 254 253 252 251 250 249 249 250 250 251 252 253 254 255 257 258 259 260 261 261 261 261 261 260 260 260 262 264 267 270 272 274 277 279 282 286 290
323 328 331 333 335 337 339 342 344 344 341 338 334 330 327 325 323 321 319 318 318 316 315 312 307 301 294 289 286 285 286 288 290 291 291 291 291 290 289 287 284 281 278 275 272 268 264 260 257 255 253 252 251 251 250 249 249 249 249 249 250 251 252 254 255 256 257 257 257 256 256 255 254 255 256 258 261 264 266 268 270 272 275 279 285 289 292
326 330 331 332 333 336 339 342 344 344 342 338 334 331 329 326 324 321 320 319 320 319 316 312 308 303 298 294 293 292 291 291 291 291 291 292 292 292 292 291 288 285 281 277 273 268 264 260 257 255 254 252 250 249 249 249 249 249 249 248 249 250 251 252 253 254 253 252 251 250 249 249 250 252 254 257 260 261 263 264 266 270 276 283 288 290 293
327 329 330 331 332 334 338 341 343 344 342 338 333 331 330 327 323 321 320 321 322 320 316 311 306 302 298 299 300 299 297 294 292 292 293 294 295 295 295 293 291 288 284 280 274 268 263 260 257 256 254 253 250 249 248 248 248 248 248 247 247 247 249 250 250 249 248 246 246 246 246 246 247 249 252 254 256 257 259 261 266 273 280 286 289 291 295
327 327 328 330 331 333 336 339 341 342 341 338 334 331 329 326 323 322 321 322 321 319 314 308 303 297 294 297 300 300 298 295 294 294 296 298 298 297 296 294 291 289 286 282 277 271 266 261 258 255 254 254 253 252 250 250 249 248 247 246 246 246 246 246 245 244 242 242 243 243 243 243 244 246 249 251 253 255 259 264 271 278 283 287 289 293 297
326 327 328 329 331 332 335 337 339 339 339 338 335 331 327 325 324 323 322 320 320 318 313 307 301 294 290 292 297 298 297 296 297 298 300 301 300 299 298 295 292 289 287 284 280 276 271 266 261 258 255 254 254 253 252 251 250 248 246 244 244 244 244 243 241 239 238 239 241 241 240 240 241 243 246 250 253 257 262 268 275 281 285 288 291 295 299
326 326 327 329 331 332 333 335 336 337 337 337 335 332 327 324 323 323 321 319 318 317 314 308 300 293 288 289 293 296 297 297 300 302 303 304 303 304 304 302 297 292 289 285 281 277 273 270 266 263 259 256 254 253 252 251 249 247 245 243 242 241 241 240 238 236 236 238 239 238 237 236 238 241 246 250 255 260 266 273 279 284 287 290 293 298 302
327 327 328 329 330 331 331 332 333 334 335 335 334 332 329 325 322 320 319 318 317 317 314 308 300 293 287 285 286 289 292 294 295 298 303 308 312 315 317 318 316 311 304 298 291 285 280 275 272 268 265 261 257 255 253 252 249 247 244 242 240 239 238 237 235 234 235 237 237 236 234 234 237 241 246 251 256 262 268 275 281 285 289 292 296 301 305
329 329 329 329 330 330 330 330 330 332 333 333 332 331 329 325 321 319 318 317 316 315 313 307 298 289 282 277 276 278 282 284 282 281 289 304 314 318 322 327 331 332 330 325 319 311 301 292 285 278 273 268 264 261 258 254 251 247 244 241 238 236 235 235 235 235 235 235 234 233 232 233 236 241 246 251 256 262 269 275 281 286 289 294 298 303 308
331 330 329 329 329 328 327 328 329 330 331 331 330 329 327 325 321 318 316 315 314 312 310 305 296 285 274 267 268 272 275 277 276 276 279 288 297 303 309 313 318 323 327 330 331 329 325 317 307 296 286 277 271 266 263 260 255 251 246 242 237 233 232 234 236 237 237 235 232 231 230 231 235 240 245 250 255 261 267 273 279 285 290 295 300 304 309
330 329 329 328 327 326 325 326 327 328 328 329 328 327 325 324 321 318 315 313 311 309 307 303 296 285 271 263 262 267 270 272 273 276 279 282 286 290 293 297 300 303 306 310 314 318 322 324 321 314 305 293 281 272 267 264 260 256 251 245 238 233 231 233 236 238 238 234 231 229 229 231 234 239 243 248 253 258 264 270 277 284 289 295 299 303 307
328 328 327 326 324 324 324 325 325 326 326 326 326 325 323 322 320 318 315 312 309 307 305 302 296 286 275 266 263 265 267 269 270 271 273 277 280 283 284 285 287 290 292 295 298 302 306 310 315 316 313 307 296 283 271 264 260 257 253 247 240 235 234 236 238 239 238 233 229 227 228 231 235 239 243 247 251 255 261 267 274 281 287 292 296 300 304
327 326 324 323 323 323 323 324 324 324 325 324 324 323 322 320 318 317 314 310 307 305 303 300 296 290 282 274 268 266 267 269 269 269 269 271 274 277 278 279 281 282 283 285 288 290 293 296 300 304 307 307 304 296 282 268 259 255 251 246 241 238 238 239 239 237 235 231 227 227 229 232 235 239 242 245 249 253 258 264 271 277 282 287 292 296 299
326 324 323 322 322 322 322 322 322 323 323 323 323 322 320 318 317 316 314 310 307 304 302 300 297 294 288 281 274 270 268 268 268 268 269 270 271 272 273 275 276 277 278 278 279 282 285 288 290 294 298 301 302 301 295 284 271 261 253 247 242 241 240 240 237 233 229 226 226 227 229 232 235 238 241 244 247 251 255 260 266 272 276 281 286 290 294
Height
5669 5669 5670 5671 5672 5673 5675 5677 5678 5680 5682 5684 5685 5686 5688 5689 5689 5690 5692 5693 5693 5695 5697 5699 5700 5701 5702 5703 5704 5705 5706 5706 5707 5708 5709 5710 5712 5713 5714 5714 5714 5714 5714 5714 5714 5715 5715 5715 5714 5715 5716 5715 5716 5718 5721 5725 5728 5729 5731 5733 5734 5737 5739 5740 5741 5743 5744 5745 5747 5748 5750 5751 5752 5753 5754 5755 5756 5756 5757 5758 5759 5761 5762 5763 5763 5764 5764
5665 5666 5667 5668 5669 5670 5672 5673 5675 5677 5678 5680 5681 5683 5685 5686 5687 5687 5689 5690 5691 5692 5695 5696 5697 5698 5699 5700 5701 5702 5703 5704 5704 5705 5706 5707 5708 5709 5710 5711 5711 5711 5710 5710 5710 5710 5710 5709 5709 5710 5711 5711 5712 5715 5718 5722 5725 5726 5727 5729 5731 5733 5735 5737 5738 5740 5741 5742 5744 5745 5747 5748 5749 5750 5751 5752 5753 5753 5754 5755 5756 5757 5759 5760 5761 5762 5762
5662 5663 5665 5666 5666 5667 5669 5670 5672 5673 5675 5676 5678 5680 5681 5683 5684 5685 5686 5687 5688 5690 5692 5693 5694 5695 5696 5697 5698 5699 5700 5701 5702 5702 5703 5704 5705 5706 5707 5708 5708 5707 5707 5707 5706 5705 5705 5704 5703 5704 5706 5708 5709 5711 5714 5718 5722 5723 5723 5724 5727 5729 5732 5733 5735 5736 5738 5739 5741 5742 5744 5745 5746 5747 5748 5748 5748 5750 5751 5751 5753 5754 5755 5757 5758 5759 5759
5659 5660 5662 5663 5664 5665 5666 5667 5668 5670 5671 5673 5674 5676 5678 5680 5681 5683 5683 5685 5686 5687 5689 5690 5691 5692 5693 5694 5695 5696 5697 5698 5699 5700 5700 5701 5702 5703 5704 5704 5704 5704 5704 5702 5702 5701 5701 5700 5699 5700 5702 5703 5705 5708 5711 5715 5718 5719 5718 5720 5724 5726 5728 5730 5731 5732 5734 5736 5737 5739 5741 5742 5742 5743 5744 5744 5744 5746 5748 5749 5750 5751 5752 5753 5754 5755 5756
5656 5658 5659 5660 5661 5663 5663 5664 5666 5666 5668 5669 5670 5672 5675 5677 5678 5680 5681 5682 5683 5685 5686 5687 5688 5690 5690 5691 5692 5693 5693 5695 5696 5697 5697 5698 5699 5700 5701 5701 5701 5701 5700 5699 5698 5698 5697 5695 5694 5695 5698 5700 5702 5706 5709 5712 5714 5715 5716 5718 5720 5722 5724 5726 5728 5730 5731 5733 5735 5736 5738 5738 5739 5740 5741 5742 5742 5744 5745 5746 5747 5748 5749 5750 5751 5752 5753
5653 5654 5655 5657 5659 5660 5661 5662 5663 5664 5665 5666 5667 5668 5671 5673 5675 5677 5678 5679 5680 5681 5683 5684 5686 5687 5687 5688 5689 5690 5690 5691 5692 5693 5694 5695 5696 5697 5698 5698 5698 5698 5698 5697 5696 5695 5694 5692 5691 5693 5696 5698 5701 5704 5706 5709 5711 5713 5714 5716 5717 5719 5721 5723 5725 5727 5729 5730 5732 5734 5735 5735 5736 5737 5738 5739 5740 5741 5742 5743 5744 5745 5746 5747 5747 5748 5749
5650 5651 5653 5655 5656 5657 5658 5659 5660 5661 5662 5663 5664 5665 5667 5670 5672 5674 5675 5676 5677 5678 5679 5681 5682 5684 5684 5685 5685 5686 5687 5688 5689 5690 5691 5692 5693 5694 5694 5695 5696 5696 5695 5694 5693 5693 5692 5691 5690 5691 5693 5695 5698 5702 5704 5706 5708 5710 5712 5713 5714 5716 5717 5720 5723 5725 5726 5728 5729 5731 5732 5732 5733 5734 5735 5736 5737 5738 5739 5740 5741 5742 5743 5744 5744 5745 5746
5648 5649 5651 5652 5653 5654 5655 5656 5658 5659 5660 5661 5661 5662 5664 5666 5668 5670 5671 5672 5673 5674 5676 5677 5679 5680 5681 5682 5682 5683 5684 5685 5686 5687 5688 5689 5689 5690 5691 5692 5693 5693 5693 5692 5691 5691 5691 5691 5691 5691 5691 5693 5696 5700 5702 5703 5705 5707 5709 5710 5711 5713 5715 5718 5720 5722 5723 5725 5726 5727 5729 5729 5730 5731 5732 5733 5734 5735 5736 5737 5738 5739 5740 5741 5741 5742 5742
5646 5647 5648 5649 5650 5651 5653 5654 5655 5656 5658 5659 5659 5660 5661 5663 5665 5666 5667 5668 5670 5671 5672 5673 5675 5677 5678 5679 5679 5680 5681 5682 5683 5684 5685 5685 5686 5687 5688 5689 5690 5691 5691 5690 5690 5690 5690 5689 5690 5691 5691 5693 5695 5697 5698 5699 5701 5703 5705 5707 5709 5711 5714 5716 5717 5719 5720 5722 5723 5724 5725 5726 5727 5728 5729 5730 5731 5733 5734 5734 5735 5736 5737 5737 5738 5739 5739
5644 5645 5645 5646 5648 5649 5650 5652 5653 5654 5655 5656 5657 5658 5658 5660 5661 5662 5663 5665 5667 5668 5668 5670 5671 5673 5674 5675 5676 5677 5678 5679 5680 5681 5681 5681 5682 5683 5684 5685 5686 5688 5689 5689 5689 5690 5689 5688 5689 5690 5691 5692 5694 5695 5696 5697 5698 5700 5702 5705 5707 5709 5711 5713 5714 5716 5718 5719 5720 5721 5722 5723 5724 5725 5726 5727 5728 5729 5730 5731 5732 5732 5733 5734 5734 5735 5736
5642 5643 5643 5644 5646 5647 5648 5649 5650 5652 5653 5654 5655 5655 5656 5657 5658 5660 5661 5662 5663 5664 5666 5667 5668 5669 5671 5672 5673 5673 5674 5675 5676 5677 5678 5678 5678 5679 5680 5682 5683 5684 5686 5686 5687 5688 5688 5688 5688 5688 5690 5691 5692 5693 5694 5695 5697 5699 5701 5703 5705 5706 5708 5709 5710 5712 5714 5715 5717 5718 5719 5720 5721 5722 5723 5724 5725 5726 5726 5727 5728 5729 5729 5730 5730 5731 5732
5640 5641 5641 5643 5644 5645 5646 5647 5648 5649 5650 5651 5652 5652 5653 5654 5655 5657 5658 5659 5660 5662 5663 5664 5665 5666 5668 5669 5670 5670 5670 5671 5672 5674 5674 5674 5675 5676 5677 5678 5679 5681 5682 5683 5684 5685 5686 5686 5686 5687 5688 5689 5690 5691 5692 5694 5695 5697 5699 5701 5703 5704 5706 5706 5708 5709 5710 5712 5713 5715 5716 5717 5718 5719 5720 5721 5721 5722 5723 5723 5724 5725 5725 5726 5726 5728 5728
5638 5639 5640 5641 5642 5642 5644 5645 5646 5647 5648 5649 5649 5650 5650 5651 5652 5653 5655 5656 5658 5659 5660 5661 5662 5663 5664 5665 5666 5666 5667 5667 5668 5670 5671 5671 5671 5672 5673 5674 5675 5676 5678 5679 5681 5681 5682 5683 5684 5684 5685 5687 5688 5689 5690 5691 5693 5694 5696 5698 5700 5702 5704 5705 5706 5707 5708 5709 5711 5712 5713 5715 5715 5715 5715 5716 5717 5718 5719 5719 5720 5721 5722 5722 5723 5724 5724
5636 5637 5638 5639 5640 5641 5642 5643 5645 5645 5646 5646 5647 5648 5648 5648 5649 5650 5651 5653 5654 5656 5657 5657 5658 5660 5661 5662 5662 5663 5663 5664 5665 5665 5666 5667 5668 5668 5669 5670 5671 5672 5674 5675 5677 5678 5679 5680 5681 5682 5682 5684 5685 5686 5687 5688 5690 5692 5693 5695 5697 5699 5701 5703 5704 5704 5705 5706 5707 5709 5710 5712 5712 5712 5712 5712 5713 5714 5715 5716 5716 5717 5718 5718 5718 5719 5719
5634 5635 5637 5638 5638 5639 5640 5641 5643 5643 5644 5645 5646 5646 5646 5647 5647 5648 5648 5649 5651 5652 5653 5654 5655 5656 5657 5658 5659 5660 5660 5661 5661 5662 5663 5663 5664 5665 5666 5667 5668 5669 5670 5671 5673 5675 5676 5676 5677 5678 5679 5680 5682 5683 5684 5685 5687 5689 5690 5692 5693 5695 5697 5699 5700 5701 5702 5702 5704 5705 5706 5708 5708 5708 5709 5709 5710 5710 5711 5712 5712 5713 5713 5714 5714 5714 5714
5633 5634 5635 5636 5637 5638 5639 5640 5641 5642 5642 5643 5644 5644 5645 5646 5646 5646 5646 5647 5648 5649 5650 5651 5652 5653 5654 5655 5656 5657 5657 5657 5658 5658 5659 5660 5661 5662 5663 5664 5665 5665 5666 5667 5669 5670 5672 5673 5674 5675 5676 5677 5678 5680 5680 5682 5683 5685 5686 5688 5689 5690 5692 5694 5696 5697 5698 5699 5699 5700 5701 5703 5704 5704 5705 5705 5705 5706 5707 5707 5708 5708 5709 5709 5709 5709 5709
5631 5633 5634 5635 5636 5637 5638 5639 5639 5640 5641 5641 5642 5643 5644 5644 5645 5645 5645 5645 5646 5646 5647 5648 5649 5650 5651 5652 5652 5653 5653 5654 5654 5655 5656 5657 5657 5659 5659 5660 5661 5662 5662 5663 5665 5666 5668 5669 5670 5672 5672 5673 5674 5675 5677 5678 5679 5680 5682 5683 5684 5686 5687 5689 5690 5692 5693 5694 5695 5695 5697 5698 5698 5699 5700 5701 5701 5702 5702 5703 5703 5704 5704 5704 5704 5704 5704
5631 5632 5633 5634 5635 5636 5637 5637 5638 5638 5639 5639 5640 5641 5642 5643 5643 5643 5643 5643 5644 5644 5645 5645 5646 5647 5648 5649 5649 5650 5650 5651 5651 5652 5652 5653 5654 5655 5656 5657 5658 5658 5659 5660 5661 5662 5663 5665 5666 5667 5668 5669 5670 5671 5673 5674 5675 5676 5677 5678 5680 5681 5682 5683 5684 5686 5687 5688 5689 5691 5692 5693 5693 5694 5695 5696 5696 5697 5697 5697 5698 5698 5698 5698 5698 5698 5698
5630 5631 5632 5633 5634 5635 5635 5636 5636 5637 5637 5638 5638 5639 5640 5640 5641 5641 5642 5642 5642 5642 5643 5643 5643 5644 5645 5645 5646 5647 5647 5648 5648 5648 5649 5650 5651 5652 5653 5653 5654 5655 5656 5656 5657 5659 5660 5660 5661 5662 5663 5665 5666 5667 5669 5670 5671 5672 5673 5674 5675 5676 5677 5678 5679 5681 5682 5683 5684 5685 5687 5687 5688 5688 5689 5690 5690 5691 5691 5691 5692 5692 5692 5692 5692 5691 5692
5630 5631 5632 5632 5633 5634 5634 5635 5635 5635 5636 5636 5636 5637 5637 5638 5639 5639 5639 5640 5640 5641 5641 5641 5642 5642 5642 5642 5643 5643 5644 5645 5645 5646 5646 5647 5647 5648 5649 5650 5651 5651 5652 5653 5654 5655 5656 5657 5657 5658 5659 5660 5661 5663 5664 5666 5667 5668 5669 5670 5671 5672 5673 5674 5675 5676 5677 5678 5679 5680 5681 5681 5682 5683 5683 5684 5684 5685 5685 5685 5685 5685 5685 5685 5685 5685 5684
5629 5630 5631 5631 5632 5632 5633 5633 5633 5634 5634 5634 5635 5635 5635 5636 5636 5637 5637 5637 5638 5638 5639 5639 5640 5640 5641 5641 5641 5641 5642 5642 5643 5643 5643 5643 5644 5644 5645 5646 5646 5647 5648 5649 5650 5651 5651 5652 5653 5654 5654 5655 5656 5657 5659 5660 5662 5663 5664 5665 5666 5667 5668 5669 5670 5671 5672 5672 5673 5674 5675 5676 5677 5677 5678 5678 5678 5679 5679 5679 5679 5679 5679 5678 5678 5678 5677
5628 5629 5629 5630 5631 5631 5631 5631 5631 5632 5632 5632 5633 5633 5633 5633 5633 5633 5634 5634 5635 5635 5636 5636 5636 5637 5637 5637 5638 5638 5639 5639 5639 5639 5639 5640 5640 5640 5641 5641 5642 5643 5643 5644 5645 5646 5646 5647 5648 5649 5650 5650 5651 5652 5654 5655 5656 5658 5659 5660 5661 5662 5664 5664 5665 5666 5666 5667 5668 5669 5670 5670 5671 5672 5673 5673 5673 5673 5673 5672 5672 5672 5672 5672 5671 5671 5671
5627 5628 5628 5629 5629 5630 5630 5630 5630 5630 5630 5630 5630 5631 5631 5631 5630 5630 5631 5631 5631 5631 5632 5632 5633 5633 5633 5633 5633 5633 5634 5634 5634 5635 5635 5635 5635 5636 5636 5637 5637 5638 5639 5640 5641 5641 5642 5643 5644 5644 5645 5646 5647 5648 5649 5650 5651 5653 5654 5655 5656 5657 5658 5659 5660 5660 5661 5661 5662 5663 5664 5665 5665 5666 5667 5667 5667 5667 5667 5666 5666 5665 5665 5665 5664 5664 5664
5627 5627 5627 5628 5628 5628 5629 5629 5629 5628 5628 5628 5628 5628 5628 5628 5628 5628 5628 5628 5628 5628 5628 5628 5629 5629 5629 5629 5629 5629 5629 5629 5629 5629 5629 5630 5630 5630 5631 5632 5632 5633 5634 5635 5636 5637 5637 5638 5639 5640 5640 5641 5642 5643 5644 5645 5646 5647 5649 5650 5651 5652 5652 5653 5654 5654 5655 5656 5657 5657 5658 5658 5659 5660 5660 5660 5661 5661 5660 5659 5659 5658 5658 5658 5657 5656 5656
5627 5627 5627 5628 5628 5628 5628 5628 5628 5627 5627 5627 5627 5626 5626 5626 5626 5625 5625 5625 5624 5624 5624 5624 5624 5624 5625 5625 5625 5625 5624 5624 5624 5624 5624 5624 5624 5625 5625 5626 5627 5627 5628 5629 5630 5631 5632 5633 5633 5634 5635 5636 5637 5637 5638 5639 5640 5641 5643 5644 5645 5646 5646 5647 5648 5648 5649 5650 5650 5651 5651 5651 5651 5652 5653 5653 5653 5653 5652 5652 5651 5651 5650 5650 5649 5648 5647
5627 5627 5627 5627 5627 5627 5627 5627 5627 5626 5626 5625 5625 5624 5624 5623 5623 5622 5622 5622 5621 5621 5620 5620 5620 5620 5620 5620 5620 5620 5619 5619 5620 5620 5620 5620 5620 5620 5620 5620 5621 5622 5622 5623 5624 5625 5626 5626 5627 5628 5630 5631 5631 5632 5632 5633 5634 5635 5636 5637 5638 5639 5640 5641 5642 5642 5643 5643 5644 5644 5644 5644 5644 5644 5645 5645 5646 5646 5645 5644 5644 5643 5642 5642 5641 5640 5639
5627 5627 5627 5627 5627 5626 5626 5626 5625 5624 5624 5623 5622 5621 5621 5620 5620 5619 5618 5618 5617 5617 5616 5616 5615 5615 5615 5615 5615 5615 5614 5614 5615 5615 5615 5615 5615 5615 5615 5616 5616 5616 5617 5618 5618 5619 5620 5620 5621 5622 5623 5624 5626 5627 5627 5628 5628 5629 5630 5631 5632 5633 5634 5635 5635 5636 5636 5637 5637 5637 5637 5637 5637 5637 5637 5638 5638 5638 5638 5638 5637 5636 5635 5634 5633 5632 5631
5626 5626 5626 5626 5625 5625 5624 5623 5623 5622 5621 5620 5619 5618 5617 5616 5615 5614 5614 5613 5612 5612 5612 5611 5610 5610 5609 5609 5609 5609 5609 5609 5609 5609 5609 5609 5609 5609 5610 5610 5610 5611 5612 5612 5613 5613 5614 5615 5615 5616 5617 5618 5619 5620 5621 5621 5622 5624 5625 5625 5626 5627 5627 5628 5629 5630 5630 5630 5630 5631 5631 5630 5630 5630 5630 5630 5631 5631 5631 5631 5630 5629 5628 5627 5626 5625 5624
5626 5625 5625 5624 5624 5623 5622 5621 5620 5619 5617 5616 5615 5614 5612 5611 5610 5609 5608 5608 5606 5606 5606 5606 5605 5604 5603 5603 5603 5603 5603 5603 5603 5603 5603 5603 5603 5603 5604 5604 5604 5605 5605 5606 5607 5608 5609 5609 5610 5610 5611 5612 5613 5614 5615 5615 5616 5617 5618 5619 5620 5620 5621 5621 5622 5623 5623 5623 5623 5623 5623 5623 5623 5623 5623 5623 5623 5624 5624 5623 5623 5622 5621 5620 5619 5618 5617
5624 5624 5623 5622 5622 5621 5619 5618 5617 5615 5613 5612 5610 5609 5607 5606 5605 5604 5603 5602 5601 5600 5599 5599 5599 5598 5597 5597 5596 5597 5597 5597 5597 5597 5597 5597 5597 5598 5598 5598 5599 5599 5599 5599 5600 5601 5602 5603 5604 5605 5606 5607 5608 5608 5609 5609 5610 5611 5612 5612 5613 5614 5614 5615 5616 5616 5617 5617 5616 5617 5617 5617 5617 5616 5616 5616 5617 5617 5617 5616 5615 5614 5613 5613 5612 5611 5610
5623 5622 5621 5620 5619 5618 5617 5615 5613 5611 5609 5607 5605 5603 5602 5600 5599 5598 5597 5596 5596 5594 5594 5593 5592 5591 5591 5590 5590 5590 5591 5591 5590 5590 5590 5591 5591 5591 5591 5592 5592 5593 5593 5593 5594 5594 5595 5596 5597 5598 5599 5601 5602 5603 5603 5603 5604 5605 5606 5607 5607 5608 5608 5609 5609 5610 5611 5610 5610 5610 5610 5610 5610 5610 5610 5610 5610 5610 5609 5608 5607 5607 5606 5606 5605 5604 5602
5621 5620 5619 5618 5617 5616 5614 5613 5611 5608 5606 5603 5601 5599 5597 5595 5594 5592 5591 5590 5590 5589 5588 5587 5586 5585 5585 5584 5584 5584 5584 5584 5584 5584 5584 5584 5584 5584 5585 5585 5586 5586 5587 5587 5588 5588 5589 5590 5591 5591 5592 5594 5595 5596 5596 5596 5597 5598 5599 5600 5601 5601 5602 5602 5603 5603 5604 5604 5604 5604 5603 5603 5603 5603 5603 5603 5603 5603 5602 5601 5600 5600 5599 5599 5598 5597 5596
5619 5618 5617 5616 5615 5613 5612 5610 5608 5605 5602 5599 5596 5594 5592 5590 5589 5587 5586 5585 5585 5584 5583 5582 5581 5580 5580 5579 5579 5578 5578 5578 5578 5578 5578 5578 5578 5578 5578 5578 5579 5579 5580 5580 5581 5582 5582 5583 5584 5585 5586 5587 5589 5590 5590 5590 5590 5591 5592 5594 5595 5595 5595 5596 5596 5597 5597 5597 5598 5597 5597 5597 5597 5596 5596 5597 5597 5597 5596 5595 5594 5594 5594 5593 5592 5591 5591
5617 5616 5615 5614 5612 5611 5609 5607 5604 5601 5598 5595 5592 5590 5588 5586 5585 5584 5583 5582 5581 5580 5579 5578 5577 5576 5576 5575 5574 5574 5573 5573 5572 5572 5572 5572 5572 5572 5571 5571 5572 5572 5573 5573 5574 5575 5575 5576 5577 5578 5579 5581 5582 5584 5584 5584 5584 5585 5586 5588 5589 5589 5589 5589 5590 5591 5591 5591 5592 5591 5591 5591 5591 5591 5591 5591 5591 5591 5591 5590 5590 5590 5589 5588 5588 5587 5586
5615 5614 5613 5611 5610 5608 5606 5603 5601 5598 5595 5592 5589 5587 5585 5584 5582 5581 5580 5578 5577 5576 5575 5575 5574 5573 5572 5572 5571 5570 5570 5569 5568 5568 5568 5567 5567 5567 5566 5566 5566 5566 5567 5567 5568 5568 5569 5570 5571 5572 5573 5575 5576 5577 5579 5579 5579 5579 5581 5582 5583 5583 5583 5584 5584 5585 5585 5586 5586 5586 5586 5586 5586 5586 5586 5587 5587 5587 5586 5586 5586 5586 5585 5584 5584 5583 5582
5613 5612 5610 5609 5607 5605 5603 5600 5598 5595 5592 5589 5587 5585 5583 5582 5580 5578 5577 5576 5575 5574 5572 5571 5571 5570 5569 5568 5568 5567 5566 5565 5565 5564 5564 5563 5563 5562 5562 5561 5561 5561 5561 5561 5562 5563 5563 5564 5565 5566 5567 5569 5570 5571 5572 5573 5574 5574 5575 5577 5577 5578 5578 5579 5579 5580 5581 5581 5581 5582 5582 5582 5582 5582 5582 5582 5583 5583 5583 5582 5583 5582 5582 5581 5580 5580 5579
5611 5609 5608 5606 5605 5602 5600 5598 5595 5592 5590 5587 5585 5583 5581 5580 5578 5576 5575 5573 5572 5571 5570 5569 5568 5567 5566 5565 5564 5564 5563 5562 5561 5561 5560 5560 5560 5559 5558 5557 5557 5557 5557 5557 5557 5558 5559 5559 5560 5561 5562 5563 5564 5565 5567 5568 5568 5569 5570 5572 5572 5573 5573 5574 5575 5576 5576 5577 5577 5577 5578 5578 5578 5578 5578 5579 5579 5579 5579 5579 5579 5579 5579 5578 5577 5577 5576
5608 5607 5606 5604 5602 5600 5597 5595 5592 5590 5587 5585 5583 5581 5579 5577 5576 5574 5572 5571 5569 5568 5567 5566 5565 5564 5563 5563 5562 5561 5560 5559 5558 5558 5557 5557 5556 5556 5555 5554 5554 5553 5553 5553 5553 5554 5554 5555 5556 5556 5557 5558 5559 5560 5562 5563 5564 5564 5566 5567 5568 5568 5569 5570 5570 5571 5572 5572 5573 5573 5573 5574 5574 5574 5575 5575 5576 5576 5576 5576 5576 5576 5575 5575 5574 5573 5573
5606 5605 5603 5601 5599 5597 5595 5593 5590 5587 5585 5583 5581 5579 5577 5575 5574 5572 5570 5569 5567 5566 5565 5564 5563 5562 5561 5560 5559 5558 5557 5556 5556 5555 5554 5554 5553 5553 5552 5551 5551 5550 5550 5549 5550 5550 5551 5551 5552 5552 5553 5554 5555 5556 5558 5559 5559 5560 5561 5563 5563 5564 5565 5566 5566 5567 5568 5568 5569 5569 5570 5570 5571 5571 5572 5572 5572 5572 5573 5573 5573 5572 5572 5571 5571 5570 5570
5603 5602 5600 5599 5597 5595 5593 5590 5588 5585 5583 5581 5579 5577 5575 5573 5571 5570 5568 5566 5565 5563 5562 5561 5560 5559 5558 5557 5556 5555 5554 5554 5553 5552 5552 5551 5550 5550 5549 5549 5548 5547 5547 5546 5546 5547 5547 5547 5548 5548 5549 5550 5551 5552 5554 5555 5555 5556 5557 5558 5559 5560 5561 5562 5562 5563 5564 5564 5565 5566 5566 5567 5567 5568 5569 5569 5569 5569 5569 5569 5569 5569 5569 5568 5568 5567 5566
5601 5599 5598 5596 5595 5593 5591 5588 5585 5583 5581 5579 5577 5575 5573 5571 5569 5568 5566 5564 5563 5561 5560 5559 5558 5557 5555 5555 5554 5553 5552 5552 5551 5550 5549 5549 5548 5547 5547 5546 5546 5545 5544 5544 5543 5543 5543 5544 5544 5545 5546 5547 5548 5549 5550 5551 5552 5553 5554 5555 5555 5556 5557 5558 5559 5560 5560 5561 5562 5562 5563 5564 5564 5565 5565 5566 5566 5566 5566 5566 5566 5566 5566 5565 5565 5564 5563
5599 5597 5596 5594 5593 5591 5588 5586 5584 5581 5579 5577 5575 5573 5571 5569 5567 5565 5564 5562 5561 5559 5558 5557 5556 5555 5554 5553 5552 5551 5551 5550 5549 5548 5547 5546 5545 5545 5544 5544 5543 5542 5542 5541 5541 5541 5541 5541 5541 5542 5542 5543 5544 5545 5546 5547 5548 5549 5550 5551 5552 5553 5554 5554 5555 5556 5557 5558 5559 5559 5560 5561 5561 5562 5562 5563 5563 5563 5563 5563 5563 5563 5562 5562 5561 5560 5559
5596 5595 5594 5592 5590 5588 5586 5584 5581 5579 5577 5575 5573 5571 5569 5567 5565 5563 5562 5560 5559 5557 5556 5555 5554 5553 5552 5552 5551 5550 5549 5548 5547 5546 5545 5544 5543 5543 5542 5541 5541 5540 5540 5539 5539 5539 5539 5539 5539 5539 5540 5540 5541 5542 5543 5544 5545 5545 5547 5548 5548 5549 5550 5551 5552 5553 5554 5555 5556 5556 5557 5558 5558 5559 5559 5560 5560 5560 5560 5560 5560 5560 5559 5558 5558 5557 5556
5594 5593 5591 5589 5588 5586 5584 5581 5579 5577 5575 5573 5571 5569 5567 5565 5563 5562 5560 5558 5557 5555 5554 5553 5552 5551 5551 5550 5549 5548 5547 5546 5545 5544 5543 5543 5542 5541 5540 5539 5539 5538 5538 5537 5537 5537 5536 5536 5537 5537 5537 5538 5538 5539 5540 5541 5542 5542 5543 5544 5545 5546 5547 5548 5549 5550 5551 5552 5552 5553 5554 5555 5555 5556 5556 5556 5557 5557 5557 5557 5557 5556 5556 5555 5554 5553 5552
5592 5590 5589 5587 5585 5583 5581 5579 5577 5575 5573 5571 5569 5567 5565 5563 5561 5559 5558 5556 5555 5553 5552 5551 5550 5549 5549 5548 5547 5546 5546 5545 5544 5543 5542 5541 5541 5540 5539 5538 5537 5536 5536 5535 5535 5535 5534 5534 5534 5534 5535 5535 5535 5536 5537 5538 5538 5539 5540 5541 5542 5543 5544 5544 5546 5547 5548 5549 5549 5550 5551 5551 5552 5553 5553 5553 5554 5554 5554 5554 5553 5553 5552 5552 5551 5550 5549
5589 5588 5586 5584 5582 5581 5579 5577 5575 5573 5571 5569 5566 5565 5563 5561 5559 5557 5556 5554 5553 5551 5550 5549 5548 5547 5546 5546 5546 5545 5544 5543 5543 5542 5541 5541 5540 5539 5538 5537 5536 5535 5534 5533 5533 5533 5532 5532 5532 5532 5532 5532 5533 5533 5533 5534 5535 5536 5536 5537 5538 5539 5540 5541 5543 5544 5544 5545 5546 5547 5548 5548 5549 5550 5550 5550 5551 5551 5551 5551 5550 5550 5549 5549 5548 5547 5546
5587 5585 5583 5582 5580 5578 5576 5574 5572 5570 5568 5566 5564 5562 5560 5559 5557 5555 5553 5552 5550 5549 5548 5547 5546 5545 5545 5544 5544 5543 5543 5542 5542 5541 5541 5540 5539 5538 5537 5536 5535 5534 5533 5532 5532 5531 5531 5530 5530 5530 5530 5530 5530 5530 5530 5531 5532 5532 5533 5534 5535 5536 5538 5539 5539 5540 5541 5542 5543 5543 5544 5545 5546 5546 5547 5547 5548 5548 5548 5548 5547 5547 5546 5546 5545 5544 5543
5584 5582 5581 5579 5577 5575 5574 5572 5570 5567 5566 5564 5562 5560 5558 5556 5554 5553 5551 5550 5548 5547 5545 5544 5543 5543 5543 5542 5542 5541 5541 5541 5540 5539 5539 5538 5538 5537 5536 5535 5534 5534 5533 5532 5531 5530 5529 5529 5528 5528 5527 5527 5527 5527 5528 5528 5529 5529 5530 5530 5532 5533 5535 5536 5536 5537 5538 5538 5539 5540 5541 5542 5542 5543 5543 5544 5544 5545 5545 5545 5544 5544 5543 5543 5542 5541 5540
5582 5580 5578 5576 5575 5573 5571 5569 5567 5565 5563 5561 5559 5557 5555 5553 5552 5550 5549 5547 5546 5544 5543 5542 5541 5540 5540 5540 5540 5539 5539 5538 5538 5537 5537 5536 5536 5535 5535 5534 5533 5532 5532 5531 5530 5529 5529 5528 5527 5526 5526 5525 5525 5525 5525 5525 5526 5526 5527 5527 5528 5530 5531 5532 5533 5534 5534 5535 5536 5536 5537 5538 5539 5539 5540 5541 5541 5541 5542 5542 5541 5541 5541 5540 5539 5539 5538
5579 5577 5576 5574 5572 5570 5568 5566 5564 5562 5560 5558 5556 5554 5552 5550 5549 5547 5546 5544 5543 5541 5540 5539 5538 5538 5537 5537 5537 5536 5536 5536 5535 5535 5534 5534 5533 5533 5532 5532 5531 5531 5530 5530 5529 5528 5527 5527 5526 5525 5525 5524 5523 5523 5523 5523 5523 5524 5524 5525 5525 5527 5528 5529 5530 5530 5531 5531 5532 5533 5534 5535 5535 5536 5537 5537 5538 5538 5538 5539 5539 5538 5538 5537 5537 5536 5536
5577 5575 5573 5571 5569 5567 5565 5563 5561 5559 5557 5555 5553 5551 5549 5547 5546 5544 5543 5541 5540 5539 5538 5537 5536 5535 5534 5533 5533 5533 5533 5532 5532 5531 5531 5531 5530 5530 5529 5529 5528 5528 5528 5527 5527 5526 5526 5525 5525 5524 5523 5523 5522 5521 5521 5521 5521 5521 5521 5522 5523 5523 5524 5525 5526 5526 5527 5528 5529 5530 5531 5532 5532 5533 5534 5534 5535 5535 5535 5536 5536 5536 5535 5535 5534 5534 5533
5574 5572 5570 5568 5566 5564 5562 5560 5558 5556 5554 5552 5550 5548 5546 5544 5543 5541 5540 5538 5537 5536 5535 5534 5533 5532 5531 5530 5529 5529 5529 5528 5528 5527 5527 5527 5526 5526 5526 5526 5525 5525 5524 5524 5524 5524 5523 5523 5522 5522 5521 5521 5520 5520 5519 5519 5518 5518 5519 5519 5519 5520 5521 5521 5522 5522 5523 5524 5525 5526 5527 5528 5529 5530 5531 5531 5532 5532 5532 5533 5533 5533 5532 5532 5532 5531 5531